TimeCST,TemperatureF,Dew PointF,Humidity,Sea Level PressureIn,VisibilityMPH,Wind Direction,Wind SpeedMPH,Gust SpeedMPH,PrecipitationIn,Events,Conditions,WindDirDegrees,DateUTC
12:53 AM,26.1,18.0,71,30.27,10.0,NNW,5.8,-,N/A,,Clear,340,2013-01-02 06:53:00
1:53 AM,25.0,18.0,75,30.28,10.0,North,4.6,-,N/A,,Clear,350,2013-01-02 07:53:00
2:53 AM,25.0,18.0,75,30.28,9.0,North,3.5,-,N/A,,Clear,360,2013-01-02 08:53:00
3:53 AM,24.1,18.0,77,30.28,8.0,NNW,4.6,-,N/A,,Clear,340,2013-01-02 09:53:00
4:53 AM,21.9,18.0,85,30.30,8.0,NNW,3.5,-,N/A,,Clear,330,2013-01-02 10:53:00
6:53 AM,23.0,17.1,78,30.30,8.0,NNE,3.5,-,N/A,,Clear,30,2013-01-02 12:53:00
7:53 AM,21.9,17.1,82,30.32,6.0,North,4.6,-,N/A,,Haze,350,2013-01-02 13:53:00
8:53 AM,25.0,16.0,69,30.33,8.0,NNE,5.8,-,N/A,,Clear,20,2013-01-02 14:53:00
9:53 AM,26.1,16.0,66,30.33,9.0,East,3.5,-,N/A,,Clear,90,2013-01-02 15:53:00
10:53 AM,28.0,17.1,63,30.32,10.0,Calm,Calm,-,N/A,,Clear,0,2013-01-02 16:53:00
11:53 AM,28.9,16.0,58,30.30,10.0,Calm,Calm,-,N/A,,Clear,0,2013-01-02 17:53:00
12:53 PM,30.9,18.0,59,30.26,10.0,Calm,Calm,-,N/A,,Clear,0,2013-01-02 18:53:00
1:53 PM,32.0,18.0,56,30.25,10.0,Calm,Calm,-,N/A,,Clear,0,2013-01-02 19:53:00
2:53 PM,32.0,16.0,52,30.25,10.0,Calm,Calm,-,N/A,,Clear,0,2013-01-02 20:53:00
3:53 PM,32.0,18.0,56,30.25,10.0,Calm,Calm,-,N/A,,Clear,0,2013-01-02 21:53:00
4:53 PM,30.9,19.9,64,30.26,10.0,SSE,4.6,-,N/A,,Clear,160,2013-01-02 22:53:00
5:53 PM,28.9,19.9,69,30.27,10.0,SSE,3.5,-,N/A,,Clear,160,2013-01-02 23:53:00
6:53 PM,28.9,19.9,69,30.27,10.0,South,3.5,-,N/A,,Clear,170,2013-01-03 00:53:00
7:53 PM,28.0,21.0,75,30.28,10.0,Calm,Calm,-,N/A,,Clear,0,2013-01-03 01:53:00
8:53 PM,27.0,21.9,81,30.29,9.0,Calm,Calm,-,N/A,,Clear,0,2013-01-03 02:53:00
9:53 PM,25.0,21.0,85,30.30,7.0,Calm,Calm,-,N/A,,Clear,0,2013-01-03 03:53:00
10:53 PM,25.0,21.0,85,30.30,7.0,Calm,Calm,-,N/A,,Clear,0,2013-01-03 04:53:00
11:53 PM,24.1,19.9,84,30.29,5.0,Calm,Calm,-,N/A,,Clear,0,2013-01-03 05:53:00